Location: ???????????
(55.5758°N, 38.4970°E)
Time: 18:20:46
(UTC+00:00)

NOSS 2-3 (C) - Pass Details

Date: 15 November 2025
Orbit: 460 x 1717 km, 63.3° (Epoch: 14 December)

Event Time Altitude Azimuth Distance (km) Brightness Sun altitude
Exits shadow 03:58:36 10° 310° (NW) 2,024 5.6 -8.7°
Reaches altitude 10° 03:58:40 10° 310° (NW) 1,999 5.6 -8.7°
Maximum altitude 04:03:07 61° 32° (NNE) 855 4.3 -8.1°
Drops below altitude 10° 04:09:11 10° 113° (ESE) 2,706 8.6 -7.3°
Sets 04:12:15 0° 116° (ESE) 3,873 10.3 -6.9°
